Weather History for Point Salines, Grenada

Change the Weather History Date:

Wednesday, April 4, 2012

  Actual Average Record
Temperature  
Mean Temperature 80 °F -  
Max Temperature 86 °F 84 °F 87 °F (2005)
Min Temperature 74 °F 76 °F 74 °F (2014)
Cooling Degree Days 15    
Growing Degree Days 30 (Base 50)    
Moisture  
Dew Point 74 °F    
Average Humidity 82    
Maximum Humidity 94    
Minimum Humidity 70    
Precipitation  
Precipitation 0.00 in - - ()
Sea Level Pressure  
Sea Level Pressure 29.89 in    
Wind  
Wind Speed 6 mph ()    
Max Wind Speed 10 mph    
Max Gust Speed -    
Visibility 7.1 miles    
Events Rain    
Averages and records for this station are not official NWS values.
T = Trace of Precipitation, MM = Missing Value Source: Averaged Metar Reports

Daily Weather History Graph

Daily Weather History Graph

Search for Another Location

Airport:

Trip Planner

Search our weather history database for the weather conditions in past years. The results will help you decide how hot, cold, wet, or windy it might be!

Date:

Astronomy

Apr. 04, 2012 Rise Set
Actual Time 6:01 AM AST 6:18 PM AST
Civil Twilight 5:40 AM AST 6:39 PM AST
Nautical Twilight 5:15 AM AST 7:04 PM AST
Astronomical Twilight 4:50 AM AST 7:29 PM AST
Moon 4:22 PM AST (4/4) 3:58 AM AST (4/4)
Length of Visible Light 12h 59m
Length of Day
12h 17m
Waxing Gibbous, 93% of the Moon is Illuminated
Apr 4
Waxing Gibbous
Apr 6
Full
Apr 13
Last Quarter
Apr 21
New
Apr 29
First Quarter

Hourly Weather History & Observations

Time (AST) Temp. Heat Index Dew Point Humidity Pressure Visibility Wind Dir Wind Speed Gust Speed Precip Events Conditions
12:00 AM 77.0 °F - 73.4 °F 89% 29.89 in 6.2 mi ESE 6.9 mph - N/A   Partly Cloudy
1:00 AM 77.0 °F - 71.6 °F 83% 29.89 in 6.2 mi East 5.8 mph - N/A   Scattered Clouds
2:00 AM 77 °F - 72 °F 81% 29.87 in 11 mi East 6.9 mph - -   Widespread Dust
2:00 AM 77.0 °F - 71.6 °F 83% 29.86 in 6.2 mi East 6.9 mph - N/A   Scattered Clouds
3:00 AM 77.0 °F - 73.4 °F 89% 29.86 in 6.2 mi East 5.8 mph - N/A   Mostly Cloudy
4:00 AM 77.0 °F - 73.4 °F 89% 29.83 in 6.2 mi East 4.6 mph - N/A   Mostly Cloudy
5:00 AM 77 °F - 72 °F 81% 29.86 in 11 mi East 4.6 mph - -   Widespread Dust
5:00 AM 77.0 °F - 71.6 °F 83% 29.86 in 6.2 mi East 4.6 mph - N/A   Mostly Cloudy
6:00 AM 77.0 °F - 73.4 °F 89% 29.86 in 6.2 mi ENE 4.6 mph - N/A   Mostly Cloudy
7:00 AM 77.0 °F - 75.2 °F 94% 29.89 in 6.2 mi East 4.6 mph - N/A   Mostly Cloudy
8:00 AM 81 °F - 75 °F 76% 29.93 in 11 mi East 9.2 mph - -   Widespread Dust
8:00 AM 80.6 °F 86.2 °F 75.2 °F 84% 29.92 in 6.2 mi East 9.2 mph - N/A   Mostly Cloudy
9:00 AM 84.2 °F 92.3 °F 75.2 °F 74% 29.92 in 6.2 mi East 9.2 mph - N/A   Mostly Cloudy
10:00 AM 84.2 °F 92.3 °F 75.2 °F 74% 29.95 in 6.2 mi ESE 9.2 mph - N/A   Mostly Cloudy
11:00 AM 84 °F - 76 °F 70% 29.94 in 10 mi SE 10.4 mph - -   Widespread Dust
11:00 AM 84.2 °F 92.3 °F 75.2 °F 74% 29.95 in 6.2 mi SE 10.4 mph - N/A   Mostly Cloudy
2:00 PM 79 °F - 76 °F 87% 29.89 in 6 mi SE 8.1 mph - - Rain Light Rain Showers
8:00 PM 78.8 °F - 73.4 °F 83% 29.86 in 6.2 mi ENE 6.9 mph - N/A   Mostly Cloudy
9:00 PM 78.8 °F - 73.4 °F 83% 29.89 in 6.2 mi Variable 3.5 mph - N/A   Mostly Cloudy
11:00 PM 78.8 °F - 73.4 °F 83% 29.92 in 6.2 mi East 5.8 mph - N/A   Mostly Cloudy